Weather History for CWAV - January, 2013

Change the Weather History Date:

Sunday, January 27, 2013

  Actual Average Record
Temperature  
Mean Temperature 20 °F -  
Max Temperature 39 °F - - ()
Min Temperature 0 °F - - ()
Degree Days  
Heating Degree Days 46    
Moisture  
Dew Point 3 °F    
Average Humidity 64    
Maximum Humidity 84    
Minimum Humidity 25    
Precipitation  
Precipitation 0.00 in - - ()
Sea Level Pressure  
Sea Level Pressure 29.86 in    
Wind  
Wind Speed 0 mph ()    
Max Wind Speed 2 mph    
Max Gust Speed -    
T = Trace of Precipitation, MM = Missing Value Source: Averaged Metar Reports

Daily Weather History Graph

Daily Weather History Graph

Search for Another Location

Airport or City:

Trip Planner

Search our weather history database for the weather conditions in past years. The results will help you decide how hot, cold, wet, or windy it might be!

Date:

Astronomy

Jan. 27, 2013 Rise Set
Actual Time 8:24 AM MST 5:19 PM MST
Civil Twilight 7:47 AM MST 5:56 PM MST
Nautical Twilight 7:06 AM MST 6:37 PM MST
Astronomical Twilight 6:27 AM MST 7:16 PM MST
Moon 6:31 PM MST (1/27) 8:08 AM MST (1/27)
Length of Visible Light 10h 08m
Length of Day
8h 54m
Full, 100% of the Moon is Illuminated
Jan 27
Full
Feb 3
Last Quarter
Feb 10
New
Feb 17
First Quarter
Feb 25
Full

Hourly Weather History & Observations

Time (MST) Temp. Dew Point Humidity Pressure Visibility Wind Dir Wind Speed Gust Speed Precip Events Conditions
12:00 AM 4.8 °F -0.8 °F 78% 29.88 in - Calm Calm - N/A   Unknown
1:00 AM 4.3 °F 0.1 °F 83% 29.87 in - West 2.3 mph - N/A   Unknown
2:00 AM 2.8 °F -1.8 °F 81% 29.86 in - Calm Calm - N/A   Unknown
3:00 AM 2.3 °F -2.2 °F 81% 29.86 in - Calm Calm - N/A   Unknown
4:00 AM 2.8 °F -1.1 °F 84% 29.86 in - Calm Calm - N/A   Unknown
5:00 AM 2 °F -2 °F 75% 29.88 in - Calm Calm - -  
5:00 AM 2.1 °F -2.0 °F 83% 29.88 in - Calm Calm - N/A   Unknown
6:00 AM 3.6 °F -0.6 °F 83% 29.90 in - Calm Calm - N/A   Unknown
7:00 AM 3.2 °F -1.7 °F 80% 29.91 in - Calm Calm - N/A   Unknown
8:00 AM 0.1 °F -4.2 °F 82% 29.94 in - Calm Calm - N/A   Unknown
9:00 AM 2.1 °F -2.2 °F 82% 29.94 in - SW 2.3 mph - N/A   Unknown
10:00 AM 9.5 °F 3.9 °F 78% 29.91 in - SW 1.2 mph - N/A   Unknown
11:00 AM 17 °F 8 °F 54% 29.89 in - Calm Calm - -  
11:00 AM 17.2 °F 7.7 °F 66% 29.89 in - Calm Calm - N/A   Unknown
12:00 PM 25.2 °F 11.3 °F 56% 29.86 in - Calm Calm - N/A   Unknown
1:00 PM 29.7 °F 12.2 °F 48% 29.83 in - Calm Calm - N/A   Unknown
2:00 PM 35.2 °F 8.8 °F 33% 29.79 in - Calm Calm - N/A   Unknown
3:00 PM 36.9 °F 3.7 °F 25% 29.79 in - Calm Calm - N/A   Unknown
4:00 PM 38.1 °F 6.3 °F 27% 29.78 in - WNW 2.3 mph - N/A   Unknown
5:00 PM 29 °F 7 °F 25% 29.81 in - WNW 1.2 mph - -  
5:00 PM 28.9 °F 7.3 °F 40% 29.81 in - WNW 1.2 mph - N/A   Unknown
7:00 PM 19.4 °F 5.9 °F 56% 29.83 in - Calm Calm - N/A   Unknown
8:00 PM 17.1 °F 5.7 °F 61% 29.86 in - Calm Calm - N/A   Unknown
9:00 PM 15.3 °F 5.0 °F 64% 29.86 in - Calm Calm - N/A   Unknown
10:00 PM 8.4 °F 2.1 °F 76% 29.85 in - WSW 2.3 mph - N/A   Unknown
11:00 PM 7 °F -1 °F 59% 29.84 in - SW 1.2 mph - -  
11:00 PM 6.6 °F -0.6 °F 72% 29.84 in - SW 1.2 mph - N/A   Unknown